Weather History for KSQL - September, 2012

Change the Weather History Date:

Friday, September 28, 2012

  Actual Average Record
Temperature  
Mean Temperature 62 °F -  
Max Temperature 68 °F 80 °F 96 °F (1966)
Min Temperature 55 °F 52 °F 45 °F (1965)
Degree Days  
Heating Degree Days 4    
Growing Degree Days 12 (Base 50)    
Moisture  
Dew Point 53 °F    
Average Humidity 84    
Maximum Humidity 94    
Minimum Humidity 64    
Precipitation  
Precipitation 0.00 in - - ()
Sea Level Pressure  
Sea Level Pressure 29.93 in    
Wind  
Wind Speed 3 mph (North)    
Max Wind Speed 13 mph    
Max Gust Speed -    
Visibility 9 miles    
Events      
Averages and records for this station are not official NWS values.
T = Trace of Precipitation, MM = Missing Value Source: NWS Daily Summary

Daily Weather History Graph

Daily Weather History Graph

Search for Another Location

Airport or City:

Trip Planner

Search our weather history database for the weather conditions in past years. The results will help you decide how hot, cold, wet, or windy it might be!

Date:

Astronomy

Sep. 28, 2012 Rise Set
Actual Time 7:02 AM PDT 6:55 PM PDT
Civil Twilight 6:36 AM PDT 7:21 PM PDT
Nautical Twilight 6:05 AM PDT 7:52 PM PDT
Astronomical Twilight 5:35 AM PDT 8:22 PM PDT
Moon 6:00 PM PDT (9/28) 5:39 AM PDT (9/28)
Length of Visible Light 12h 45m
Length of Day
11h 53m
Waxing Gibbous, 98% of the Moon is Illuminated
Sep 28
Waxing Gibbous
Sep 29
Full
Oct 8
Last Quarter
Oct 15
New
Oct 21
First Quarter

Hourly Weather History & Observations

Time (PDT) Temp. Dew Point Humidity Pressure Visibility Wind Dir Wind Speed Gust Speed Precip Events Conditions
12:10 AM 57.2 °F 53.6 °F 88% 29.91 in 10.0 mi North 3.5 mph - N/A   Clear
12:30 AM 57.2 °F 53.6 °F 88% 29.91 in 10.0 mi North 3.5 mph - N/A   Clear
12:50 AM 57.2 °F 53.6 °F 88% 29.91 in 10.0 mi NW 3.5 mph - N/A   Clear
1:10 AM 57.2 °F 51.8 °F 82% 29.92 in 10.0 mi Calm Calm - N/A   Clear
1:30 AM 57.2 °F 53.6 °F 88% 29.92 in 10.0 mi Calm Calm - N/A   Clear
1:50 AM 57.2 °F 53.6 °F 88% 29.92 in 10.0 mi Calm Calm - N/A   Clear
2:10 AM 57.2 °F 51.8 °F 82% 29.92 in 10.0 mi Calm Calm - N/A   Clear
2:30 AM 57.2 °F 51.8 °F 82% 29.91 in 10.0 mi Calm Calm - N/A   Clear
2:55 AM 55.4 °F 50.0 °F 82% 29.90 in 10.0 mi NW 4.6 mph - N/A   Clear
3:10 AM 55.4 °F 50.0 °F 82% 29.90 in 10.0 mi NW 3.5 mph - N/A   Clear
3:30 AM 55.4 °F 50.0 °F 82% 29.89 in 10.0 mi WNW 3.5 mph - N/A   Clear
3:50 AM 55.4 °F 50.0 °F 82% 29.89 in 10.0 mi NW 3.5 mph - N/A   Clear
4:10 AM 55.4 °F 50.0 °F 82% 29.89 in 10.0 mi Calm Calm - N/A   Clear
4:30 AM 55.4 °F 50.0 °F 82% 29.89 in 10.0 mi Calm Calm - N/A   Clear
4:50 AM 55.4 °F 50.0 °F 82% 29.89 in 10.0 mi Calm Calm - N/A   Clear
5:10 AM 55.4 °F 50.0 °F 82% 29.90 in 10.0 mi Calm Calm - N/A   Scattered Clouds
5:30 AM 55.4 °F 50.0 °F 82% 29.90 in 10.0 mi Calm Calm - N/A   Overcast
5:55 AM 55.4 °F 50.0 °F 82% 29.91 in 10.0 mi Calm Calm - N/A   Overcast
6:10 AM 55.4 °F 50.0 °F 82% 29.91 in 10.0 mi North 3.5 mph - N/A   Overcast
6:30 AM 55.4 °F 50.0 °F 82% 29.92 in 10.0 mi Calm Calm - N/A   Overcast
6:55 AM 55.4 °F 50.0 °F 82% 29.93 in 10.0 mi NW 3.5 mph - N/A   Overcast
7:47 AM 55.4 °F 53.6 °F 94% 29.95 in 5.0 mi NNE 4.6 mph - N/A   Overcast
8:30 AM 55.4 °F 53.6 °F 94% 29.96 in 3.0 mi NNW 3.5 mph - N/A   Overcast
8:47 AM 55.4 °F 53.6 °F 94% 29.96 in 2.5 mi North 3.5 mph - N/A   Overcast
9:50 AM 57.2 °F 53.6 °F 88% 29.98 in 5.0 mi Calm Calm - N/A   Overcast
10:47 AM 57.2 °F 55.4 °F 94% 29.99 in 5.0 mi North 3.5 mph - N/A   Mostly Cloudy
12:54 PM 62.6 °F 55.4 °F 77% 29.97 in 10.0 mi NNE 8.1 mph - N/A   Scattered Clouds
1:47 PM 62.6 °F 55.4 °F 77% 29.95 in 10.0 mi NNE 10.4 mph - N/A   Partly Cloudy
2:47 PM 64.4 °F 57.2 °F 77% 29.93 in 10.0 mi North 10.4 mph - N/A   Partly Cloudy
3:51 PM 68.0 °F 55.4 °F 64% 29.92 in 10.0 mi North 8.1 mph - N/A   Scattered Clouds
4:54 PM 64.4 °F 57.2 °F 77% 29.91 in 10.0 mi NNE 12.7 mph - N/A   Scattered Clouds
5:47 PM 62.6 °F 55.4 °F 77% 29.91 in 10.0 mi NNE 10.4 mph - N/A   Scattered Clouds
6:47 PM 60.8 °F 55.4 °F 82% 29.92 in 10.0 mi North 6.9 mph - N/A   Scattered Clouds
7:52 PM 59.0 °F 53.6 °F 82% 29.93 in 10.0 mi North 4.6 mph - N/A   Partly Cloudy
8:47 PM 57.2 °F 53.6 °F 88% 29.95 in 10.0 mi North 3.5 mph - N/A   Partly Cloudy
9:10 PM 57.2 °F 53.6 °F 88% 29.95 in 10.0 mi North 3.5 mph - N/A   Clear
9:30 PM 57.2 °F 53.6 °F 88% 29.96 in 10.0 mi North 3.5 mph - N/A   Clear
9:55 PM 57.2 °F 53.6 °F 88% 29.96 in 10.0 mi North 3.5 mph - N/A   Clear
10:10 PM 57.2 °F 53.6 °F 88% 29.97 in 10.0 mi Calm Calm - N/A   Clear
10:30 PM 57.2 °F 53.6 °F 88% 29.96 in 10.0 mi Calm Calm - N/A   Clear
10:50 PM 57.2 °F 53.6 °F 88% 29.97 in 10.0 mi North 3.5 mph - N/A   Clear
11:10 PM 55.4 °F 53.6 °F 94% 29.97 in 10.0 mi Calm Calm - N/A   Clear
11:30 PM 57.2 °F 53.6 °F 88% 29.98 in 10.0 mi Calm Calm - N/A   Clear
11:50 PM 55.4 °F 51.8 °F 88% 29.98 in 10.0 mi Calm Calm - N/A   Partly Cloudy